TimeEDT,TemperatureF,Dew PointF,Humidity,Sea Level PressureIn,VisibilityMPH,Wind Direction,Wind SpeedMPH,Gust SpeedMPH,PrecipitationIn,Events,Conditions,WindDirDegrees,DateUTC
12:53 AM,62.1,57.9,86,29.99,10.0,South,3.5,-,N/A,,Overcast,180,2012-10-24 04:53:00
1:53 AM,63.0,57.9,84,29.98,10.0,SE,5.8,-,N/A,,Overcast,140,2012-10-24 05:53:00
2:53 AM,62.1,57.0,84,29.98,10.0,SSE,6.9,-,N/A,,Overcast,160,2012-10-24 06:53:00
3:53 AM,64.0,57.0,78,29.98,10.0,SSW,3.5,-,N/A,,Overcast,200,2012-10-24 07:53:00
4:53 AM,64.0,57.0,78,29.97,10.0,South,6.9,-,N/A,,Overcast,190,2012-10-24 08:53:00
5:53 AM,64.0,55.9,75,29.98,10.0,SSW,9.2,-,N/A,,Mostly Cloudy,210,2012-10-24 09:53:00
6:53 AM,63.0,55.9,78,29.99,10.0,SSW,5.8,-,N/A,,Mostly Cloudy,200,2012-10-24 10:53:00
7:53 AM,61.0,55.0,81,29.99,10.0,South,6.9,-,N/A,,Clear,170,2012-10-24 11:53:00
8:53 AM,63.0,55.0,75,30.00,10.0,South,10.4,-,N/A,,Clear,190,2012-10-24 12:53:00
9:53 AM,64.9,55.0,70,30.01,10.0,SSW,10.4,-,N/A,,Clear,200,2012-10-24 13:53:00
10:53 AM,68.0,57.0,68,30.01,10.0,SW,12.7,-,N/A,,Clear,220,2012-10-24 14:53:00
11:53 AM,71.1,57.0,61,29.99,10.0,South,12.7,-,N/A,,Clear,180,2012-10-24 15:53:00
12:53 PM,72.0,57.9,61,29.99,10.0,South,11.5,-,N/A,,Clear,190,2012-10-24 16:53:00
1:53 PM,75.0,59.0,57,29.97,10.0,SSW,12.7,-,N/A,,Clear,210,2012-10-24 17:53:00
2:53 PM,77.0,60.1,56,29.95,10.0,SSE,12.7,-,N/A,,Clear,160,2012-10-24 18:53:00
3:53 PM,78.1,60.1,54,29.94,10.0,South,11.5,-,N/A,,Clear,190,2012-10-24 19:53:00
4:53 PM,78.1,60.1,54,29.93,10.0,South,11.5,-,N/A,,Clear,180,2012-10-24 20:53:00
5:53 PM,75.9,60.1,58,29.93,10.0,South,11.5,-,N/A,,Clear,180,2012-10-24 21:53:00
6:53 PM,73.9,60.1,62,29.94,10.0,South,6.9,-,N/A,,Clear,170,2012-10-24 22:53:00
7:53 PM,71.1,59.0,66,29.95,10.0,South,9.2,-,N/A,,Clear,170,2012-10-24 23:53:00
8:53 PM,68.0,57.9,70,29.96,10.0,South,6.9,-,N/A,,Clear,170,2012-10-25 00:53:00
9:53 PM,66.9,57.0,70,29.95,10.0,SSE,9.2,-,N/A,,Clear,160,2012-10-25 01:53:00
10:53 PM,66.9,55.0,66,29.96,10.0,South,9.2,-,N/A,,Clear,170,2012-10-25 02:53:00
11:53 PM,64.9,55.0,70,29.96,10.0,South,6.9,-,N/A,,Clear,170,2012-10-25 03:53:00